{"data":{"norad_id":59459,"epoch":"2026-05-25T04:13:14.270304Z","epoch_age_seconds":66674,"freshness":"FRESH","line1":"1 59459U 24068E   26145.17585961 -.00000357  00000+0 -34362-5 0  9991","line2":"2 59459  43.0032 318.8184 0001272 275.4249  84.6458 15.27575400120266","mean_motion":15.275754,"eccentricity":0.0001272,"inclination_deg":43.0032,"raan_deg":318.8184,"arg_perigee_deg":275.4249,"mean_anomaly_deg":84.6458,"bstar":-3.4362e-6,"rev_number":12026,"period_min":94.267032579865,"perigee_km":482.19012550558,"apogee_km":483.93561475254,"semimajor_km":6861.1998701291,"source":"CELESTRAK","updated_at":"2026-05-25T13:38:18.948602Z"}}